Stations météo

Publicité
Rouen, France (7037): Température de l'air & dewpoint: 08.11.2018 10:00:00 - 14.11.2018 10:00:00 (CET)Rouen, France (7037): Température de l'air 5cm: 08.11.2018 10:00:00 - 14.11.2018 10:00:00 (CET)Rouen, France (7037): Température de l'air -20cm & Température de l'air -100cm: 08.11.2018 10:00:00 - 14.11.2018 10:00:00 (CET)Rouen, France (7037): Vitesse du vent & gusts: 08.11.2018 10:00:00 - 14.11.2018 10:00:00 (CET)Rouen, France (7037): Direction du vent: 08.11.2018 10:00:00 - 14.11.2018 10:00:00 (CET)Rouen, France (7037): reduced air pressure: 08.11.2018 10:00:00 - 14.11.2018 10:00:00 (CET)Rouen, France (7037): visibility: 08.11.2018 10:00:00 - 14.11.2018 10:00:00 (CET)Rouen, France (7037): Ensoleillement: 08.11.2018 10:00:00 - 14.11.2018 10:00:00 (CET)Rouen, France (7037): Quantités de précipitations: 08.11.2018 10:00:00 - 14.11.2018 10:00:00 (CET)
Date & Time tt [°C] td [°C] tt 5cm [°C] tt -20cm [°C] tt -100cm [°C] ff [km/h] ff [knt] fx [km/h] fx [knt] dd ppp [hPa] vv [km] sd [min] rr [mm]
14.11.2018 10:00:00 - - - - - - - - - - - - - -
14.11.2018 09:00:00 5,3 5,0 -0,4 10,1 12,4 6 3 11 6 E 1026,7 4,0 0 0,0
14.11.2018 08:00:00 4,0 3,7 0,1 10,2 12,3 8 5 13 7 SE 1026,5 0,7 0 0,2
14.11.2018 07:00:00 4,1 3,7 -0,5 10,3 12,3 11 6 14 8 SE 1026,6 1,4 0 0,0
14.11.2018 06:00:00 4,2 3,8 -1,4 10,4 12,3 9 5 13 7 SE 1027,0 0,5 0 0,0
14.11.2018 05:00:00 4,8 4,4 -0,7 10,5 12,3 7 4 8 4 ESE 1027,5 0,5 0 0,0
14.11.2018 04:00:00 5,2 4,8 -0,3 10,6 12,4 6 4 13 7 SSE 1027,9 3,5 0 0,0
14.11.2018 03:00:00 5,7 5,1 0,3 10,6 12,3 9 5 13 7 SSE 1028,5 0,7 0 0,0
14.11.2018 02:00:00 6,2 5,3 2,7 10,7 12,3 10 5 17 9 SSE 1028,7 7 0 0,2
14.11.2018 01:00:00 7,3 6,6 4,7 10,8 12,3 10 5 14 8 S 1029,0 16 0 0,0
14.11.2018 00:00:00 6,7 6,0 3,4 10,9 12,3 9 5 13 7 SSE 1029,1 15 0 0,0
13.11.2018 23:00:00 7,5 6,4 4,0 10,9 12,3 9 5 15 8 S 1029,3 18 0 0,0
13.11.2018 22:00:00 7,4 6,3 3,5 11,0 12,3 11 6 15 8 S 1029,0 20 0 0,0
13.11.2018 21:00:00 7,8 6,3 3,5 11,1 12,3 9 5 13 7 S 1028,8 41 0 0,0
13.11.2018 20:00:00 7,6 6,2 2,2 11,1 12,4 8 4 13 7 S 1028,9 42 0 0,0
13.11.2018 19:00:00 8,8 6,8 2,0 11,1 12,4 9 5 13 7 S 1028,6 60 0 0,0
13.11.2018 18:00:00 8,2 6,3 2,2 11,1 12,3 6 3 13 7 S 1028,4 60 0 0,0
13.11.2018 17:00:00 11,4 6,7 8,2 10,9 12,3 11 6 21 11 SW 1028,1 19 0 0,0
13.11.2018 16:00:00 13,2 7,2 13,7 10,8 12,3 12 6 29 15 WSW 1027,6 56 1 0,0
13.11.2018 15:00:00 14,8 7,6 18,2 10,7 12,3 17 9 32 18 WSW 1026,7 42 60 0,0
13.11.2018 14:00:00 14,8 7,8 16,1 10,6 12,4 23 12 35 19 WSW 1026,7 31 49 0,0
13.11.2018 13:00:00 13,8 8,4 16,2 10,5 12,4 22 12 31 17 SW 1026,5 25 55 0,0
13.11.2018 12:00:00 13,6 9,6 15,2 10,5 12,3 23 12 37 20 WSW 1026,4 20 60 0,0
13.11.2018 11:00:00 11,7 9,3 12,9 10,5 12,3 20 11 30 16 SW 1026,1 26 60 0,0
13.11.2018 10:00:00 9,3 8,5 7,6 10,5 12,3 18 10 24 13 SSW 1025,5 20 12 0,0
13.11.2018 09:00:00 7,5 6,9 5,7 10,6 12,4 14 7 20 11 SSW 1024,7 19 0 0,0
13.11.2018 08:00:00 7,2 6,6 5,3 10,7 12,3 16 9 23 12 SSW 1023,6 18 0 0,0
13.11.2018 07:00:00 7,3 6,7 4,9 10,8 12,4 15 8 21 11 S 1022,7 14 0 0,0
13.11.2018 06:00:00 7,6 7,0 5,2 10,8 12,3 15 8 21 11 S 1021,9 20 0 0,0
13.11.2018 05:00:00 7,5 6,9 6,4 10,9 12,3 11 6 23 13 S 1021,0 10 0 0,2
13.11.2018 04:00:00 7,9 7,1 4,9 10,9 12,3 14 8 23 12 S 1020,6 15 0 0,0
13.11.2018 03:00:00 8,4 7,6 4,9 11,0 12,3 16 9 23 12 S 1020,1 17 0 0,0
13.11.2018 02:00:00 8,5 7,7 6,5 11,0 12,3 15 8 23 13 S 1019,9 14 0 0,0
13.11.2018 01:00:00 9,2 8,4 8,1 11,1 12,3 17 9 26 14 S 1019,2 20 0 0,0
13.11.2018 00:00:00 8,8 8,0 6,8 11,1 12,3 18 10 26 14 S 1018,8 20 0 0,0
12.11.2018 23:00:00 8,9 8,0 7,4 11,2 12,3 16 9 23 12 S 1018,2 52 0 0,0
12.11.2018 22:00:00 9,1 7,9 7,8 11,2 12,3 16 9 25 13 SSW 1018,0 60 0 0,0
12.11.2018 21:00:00 9,3 8,1 8,3 11,3 12,4 19 10 27 14 SSW 1017,7 60 0 0,0
12.11.2018 20:00:00 9,5 7,9 8,6 11,3 12,4 16 9 29 15 S 1017,7 60 0 0,0
12.11.2018 19:00:00 9,9 8,0 9,3 11,2 12,3 18 10 27 15 S 1017,3 60 0 0,0
12.11.2018 18:00:00 10,1 8,0 9,5 11,2 12,3 13 7 23 13 S 1016,5 60 0 0,0
12.11.2018 17:00:00 10,7 8,1 10,3 11,1 12,3 15 8 26 14 S 1016,2 60 0 0,0
12.11.2018 16:00:00 11,5 8,5 11,7 11,0 12,3 23 12 32 17 S 1015,4 60 0 0,0
12.11.2018 15:00:00 11,8 9,4 12,6 10,9 12,3 16 9 24 13 S 1015,1 49 12 0,0
12.11.2018 14:00:00 12,6 9,2 13,3 10,9 12,3 13 7 25 14 SSE 1014,4 28 53 0,0
12.11.2018 13:00:00 12,8 9,8 11,9 10,9 12,3 15 8 25 13 S 1014,5 19 38 0,0
12.11.2018 12:00:00 10,4 9,5 11,0 10,8 12,3 14 7 21 11 S 1014,4 60 0 0,0
12.11.2018 11:00:00 9,8 9,2 9,2 10,9 12,4 13 7 18 10 S 1013,8 39 0 0,0
12.11.2018 10:00:00 9,2 8,7 8,9 10,9 12,4 13 7 18 10 S 1013,4 19 0 0,2
12.11.2018 09:00:00 9,0 8,5 8,8 10,9 12,4 13 7 18 10 SSE 1012,6 17 0 0,6
12.11.2018 08:00:00 9,1 8,6 8,8 10,9 12,3 12 6 18 10 SSE 1012,0 8 0 1,2
12.11.2018 07:00:00 9,2 8,6 8,9 10,9 12,3 11 6 16 9 S 1011,8 7 0 1,9
12.11.2018 06:00:00 9,6 9,1 9,2 10,9 12,3 10 6 15 8 S 1011,1 5 0 1,0
12.11.2018 05:00:00 9,8 9,2 9,4 10,9 12,4 8 5 24 13 SSE 1010,1 15 0 1,0
12.11.2018 04:00:00 10,0 9,4 9,6 10,9 12,3 16 8 23 13 SSE 1010,2 9 0 1,0
12.11.2018 03:00:00 10,2 9,7 9,9 11,0 12,4 13 7 20 11 SSE 1010,1 7 0 1,0
12.11.2018 02:00:00 10,4 9,8 9,8 11,0 12,4 11 6 22 12 SSE 1009,9 10 0 0,6
12.11.2018 01:00:00 10,4 9,8 9,7 11,0 12,3 13 7 20 11 S 1009,8 17 0 0,2
12.11.2018 00:00:00 10,2 9,6 9,6 11,0 12,3 14 8 20 11 SSE 1009,9 16 0 0,0
11.11.2018 23:00:00 10,2 9,4 9,8 11,0 12,3 16 9 26 14 S 1010,0 34 0 0,0
11.11.2018 22:00:00 10,1 9,2 9,3 11,0 12,4 13 7 28 15 S 1009,8 59 0 0,0
11.11.2018 21:00:00 9,8 8,7 8,9 11,1 12,3 14 8 26 14 S 1009,4 60 0 0,0
11.11.2018 20:00:00 9,5 8,3 8,7 11,1 12,3 13 7 21 12 S 1008,6 60 0 0,0
11.11.2018 19:00:00 9,7 8,5 9,0 11,1 12,3 14 7 23 13 S 1007,8 60 0 0,0
11.11.2018 18:00:00 10,0 8,8 9,0 11,0 12,3 14 8 20 11 S 1007,5 60 0 0,0
11.11.2018 17:00:00 10,9 8,8 10,0 11,0 12,3 14 8 29 16 SSW 1006,7 19 0 0,0
11.11.2018 16:00:00 11,7 9,6 12,1 11,0 12,4 21 11 38 21 SSW 1005,9 60 0 0,0
11.11.2018 15:00:00 11,5 9,6 11,5 10,9 12,4 22 12 33 18 S 1005,3 58 0 0,0
11.11.2018 14:00:00 11,1 9,7 11,3 10,9 12,4 21 12 41 22 SSW 1005,1 60 0 0,0
11.11.2018 13:00:00 11,1 9,8 10,9 10,9 12,3 21 11 36 19 S 1004,9 54 0 0,0
11.11.2018 12:00:00 10,8 9,1 10,2 10,9 12,3 26 14 39 21 S 1005,1 56 0 0,0
11.11.2018 11:00:00 10,8 9,7 10,2 10,9 12,3 25 13 45 24 S 1004,5 19 0 1,0
11.11.2018 10:00:00 10,9 9,5 10,1 10,9 12,4 21 11 32 18 S 1004,0 14 0 0,2
11.11.2018 09:00:00 10,2 8,8 9,6 10,9 12,4 16 9 32 17 S 1002,7 53 0 0,0
11.11.2018 08:00:00 9,9 8,5 9,2 11,0 12,3 22 12 32 17 S 1001,9 54 0 0,0
11.11.2018 07:00:00 10,2 8,1 9,4 11,0 12,4 20 11 34 18 S 1001,5 60 0 0,0
11.11.2018 06:00:00 10,1 7,7 9,3 11,0 12,4 23 12 31 17 S 1001,3 60 0 0,0
11.11.2018 05:00:00 10,4 8,5 9,2 11,0 12,4 21 11 41 22 S 1000,8 60 0 0,0
11.11.2018 04:00:00 10,4 8,5 9,3 11,0 12,4 25 14 37 20 S 1000,6 60 0 0,0
11.11.2018 03:00:00 10,4 8,8 9,4 11,1 12,4 23 12 35 19 S 1000,6 60 0 0,0
11.11.2018 02:00:00 10,5 9,3 9,2 11,0 12,3 21 12 36 19 S 1000,3 57 0 0,0
11.11.2018 01:00:00 9,7 8,6 9,1 11,1 12,3 15 8 37 20 SSW 1000,6 60 0 1,0
11.11.2018 00:00:00 10,2 9,1 9,6 11,1 12,4 15 8 32 18 S 1000,4 20 0 0,0
10.11.2018 23:00:00 10,3 8,7 9,8 11,1 12,3 22 12 42 23 S 1000,5 36 0 0,0
10.11.2018 22:00:00 10,4 8,3 9,7 11,1 12,4 28 15 47 25 S 1000,2 60 0 0,0
10.11.2018 21:00:00 10,8 8,6 10,3 11,1 12,4 27 15 40 22 S 1000,0 60 0 0,2
10.11.2018 20:00:00 11,1 9,8 10,4 11,1 12,4 21 12 31 17 S 999,9 60 0 0,0
10.11.2018 19:00:00 10,8 9,6 10,0 11,1 12,4 20 11 32 17 SSE 999,8 58 0 0,0
10.11.2018 18:00:00 10,6 9,2 9,9 11,1 12,4 19 10 28 15 SSE 999,6 55 0 0,0
10.11.2018 17:00:00 11,4 9,0 10,8 11,0 12,4 19 11 32 17 S 999,6 60 0 0,0
10.11.2018 16:00:00 12,5 9,1 12,7 10,9 12,3 21 11 37 20 S 999,3 58 0 0,0
10.11.2018 15:00:00 13,0 9,4 13,9 10,8 12,4 29 15 42 23 S 999,3 20 19 0,0
10.11.2018 14:00:00 13,0 10,4 12,8 10,8 12,4 26 14 36 19 SSW 999,4 35 18 0,0
10.11.2018 13:00:00 12,6 10,8 11,0 10,7 12,4 24 13 34 18 SSW 999,6 60 24 0,4
10.11.2018 12:00:00 11,0 10,4 10,8 10,7 12,4 21 11 31 17 S 1000,1 8 0 1,5
10.11.2018 11:00:00 10,9 10,4 10,6 10,7 12,4 16 9 28 15 S 1000,1 14 0 1,4
10.11.2018 10:00:00 10,8 10,3 10,4 10,7 12,4 15 8 27 15 S 999,8 7 0 2,2
10.11.2018 09:00:00 10,7 10,1 10,4 10,6 12,4 13 7 25 14 SSE 1000,1 3,8 0 1,8
10.11.2018 08:00:00 10,8 9,9 10,4 10,6 12,4 14 7 30 16 S 999,7 60 0 0,0
10.11.2018 07:00:00 11,0 9,9 10,5 10,7 12,4 21 11 35 19 S 999,7 60 0 0,0
10.11.2018 06:00:00 11,0 9,9 10,4 10,6 12,4 25 14 39 21 S 999,5 60 0 0,0
10.11.2018 05:00:00 10,9 10,0 10,4 10,6 12,4 22 12 54 29 S 999,1 60 0 0,8
10.11.2018 04:00:00 10,9 9,8 10,1 10,6 12,4 33 18 50 27 S 998,8 60 0 0,0
10.11.2018 03:00:00 10,4 9,6 9,9 10,6 12,4 26 14 48 26 S 998,7 19 0 0,8
10.11.2018 02:00:00 10,3 9,5 9,9 10,6 12,4 27 14 51 28 S 998,8 14 0 1,4
10.11.2018 01:00:00 10,4 9,3 9,7 10,6 12,4 28 15 47 25 S 999,9 10 0 0,8
10.11.2018 00:00:00 10,3 9,2 9,7 10,6 12,4 28 15 51 28 S 1000,5 17 0 1,0
09.11.2018 23:00:00 10,3 9,2 9,6 10,6 12,4 26 14 42 23 S 1001,9 12 0 1,2
09.11.2018 22:00:00 10,7 9,1 9,8 10,6 12,4 28 15 52 28 S 1002,9 13 0 0,4
09.11.2018 21:00:00 11,2 8,6 10,5 10,6 12,4 29 16 49 27 SSE 1003,5 60 0 0,0
09.11.2018 20:00:00 10,8 8,6 9,7 10,6 12,4 28 15 42 23 SSE 1004,9 60 0 0,0
09.11.2018 19:00:00 10,3 8,2 9,6 10,6 12,4 24 13 38 21 SSE 1005,9 60 0 0,0
09.11.2018 18:00:00 10,7 7,6 9,8 10,5 12,4 23 13 33 18 SSE 1006,5 60 0 0,0
09.11.2018 17:00:00 10,7 7,2 10,1 10,4 12,4 16 9 34 18 SSE 1007,4 60 0 0,0
09.11.2018 16:00:00 11,8 7,1 12,2 10,3 12,4 21 11 37 20 S 1008,2 41 2 0,0
09.11.2018 15:00:00 12,5 7,6 13,5 10,2 12,5 23 13 37 20 S 1009,1 20 19 0,0
09.11.2018 14:00:00 13,6 8,8 15,1 10,0 12,4 23 12 35 19 SSW 1009,8 29 50 0,0
09.11.2018 13:00:00 13,3 8,6 14,9 9,9 12,4 17 9 27 15 S 1009,8 23 60 0,0
09.11.2018 12:00:00 11,9 8,4 13,2 9,9 12,5 15 8 27 15 S 1010,7 25 60 0,0
09.11.2018 11:00:00 10,0 7,4 8,1 10,0 12,5 18 10 27 14 S 1011,1 27 34 0,0
09.11.2018 10:00:00 7,5 6,4 6,5 10,0 12,4 15 8 26 14 SSE 1011,6 37 0 0,0
09.11.2018 09:00:00 6,8 6,1 4,8 10,0 12,4 15 8 23 12 SE 1011,5 32 0 0,0
09.11.2018 08:00:00 6,0 5,3 4,6 10,1 12,5 9 5 18 10 SSE 1011,5 20 0 0,0
09.11.2018 07:00:00 7,2 6,1 6,1 10,1 12,5 13 7 18 10 SE 1011,2 40 0 0,0
09.11.2018 06:00:00 6,8 5,9 5,6 10,1 12,4 15 8 21 12 SE 1011,8 36 0 0,0
09.11.2018 05:00:00 7,2 6,3 6,4 10,1 12,5 14 7 20 11 SE 1012,0 33 0 0,0
09.11.2018 04:00:00 7,2 6,3 6,3 10,2 12,5 11 6 20 11 SE 1011,8 28 0 0,4
09.11.2018 03:00:00 7,2 6,1 6,3 10,2 12,5 11 6 18 10 ESE 1012,1 38 0 0,0
09.11.2018 02:00:00 6,9 5,7 6,0 10,3 12,5 11 6 18 10 SE 1012,4 33 0 0,0
09.11.2018 01:00:00 6,9 5,8 5,8 10,3 12,5 16 8 20 11 ESE 1012,9 20 0 0,0
09.11.2018 00:00:00 7,3 5,8 6,4 10,4 12,5 12 6 23 12 SE 1013,5 38 0 0,0
08.11.2018 23:00:00 7,0 5,8 5,8 10,4 12,5 15 8 25 14 E 1013,8 36 0 0,0
08.11.2018 22:00:00 7,0 5,8 6,2 10,4 12,5 14 8 25 13 ESE 1014,6 20 0 0,0
08.11.2018 21:00:00 7,6 6,1 6,8 10,5 12,5 16 9 29 16 ESE 1014,9 36 0 0,0
08.11.2018 20:00:00 7,9 6,2 7,1 10,5 12,5 19 11 32 17 ESE 1015,1 36 0 0,0
08.11.2018 19:00:00 7,8 5,9 5,3 10,5 12,5 21 11 32 17 E 1015,2 20 0 0,0
08.11.2018 18:00:00 6,8 5,1 4,2 10,5 12,5 9 5 16 9 SE 1016,0 52 0 0,0
08.11.2018 17:00:00 8,5 5,4 7,7 10,4 12,5 12 6 22 12 ESE 1016,2 60 0 0,0
08.11.2018 16:00:00 10,3 6,4 11,5 10,3 12,5 13 7 26 14 SE 1016,5 23 5 0,0
08.11.2018 15:00:00 11,1 7,4 13,2 10,2 12,5 14 8 26 14 SE 1017,1 22 47 0,0
08.11.2018 14:00:00 9,6 7,4 9,3 10,1 12,5 18 10 36 20 SE 1018,2 19 22 0,0
08.11.2018 13:00:00 8,5 7,6 8,5 10,1 12,5 19 10 26 14 SE 1019,1 18 16 0,0
08.11.2018 12:00:00 7,6 7,3 7,2 10,1 12,5 16 9 23 13 SSE 1019,8 10 14 0,0
08.11.2018 11:00:00 6,0 5,7 6,0 10,1 12,5 15 8 23 12 SSE 1020,4 0,8 0 0,0
08.11.2018 10:00:00 5,2 4,9 4,8 10,3 12,5 15 8 27 14 SSE 1020,4 0,2 0 0,0

tt = Température de l'air
td = dewpoint
tt 5cm = Température de l'air 5cm
tt -20cm = Température de l'air -20cm
tt -100cm = Température de l'air -100cm
ff = Vitesse du vent
fx = gusts
dd = Direction du vent
ppp = reduced air pressure
vv = visibility
sd = Ensoleillement
rr = Quantités de précipitations

stations d'obs. à proximité